Regional Weather Roundup
Issued by NWS

Home | Current Version | Previous Version | Graphics & Text | Print | Product List | Glossary On
Versions: 1 2 3 4 5 6 7 8 9 10 11 12 13 14 15 16 17 18 19 20 21 22 23 24 25 26 27 28 29 30 31 32 33 34 35 36 37 38 39 40 41 42 43 44 45 46 47 48 49 50
000
ASUS43 KOAX 280602
RWRNE

WEATHER ROUNDUP FOR NEBRASKA
NATIONAL WEATHER SERVICE OMAHA NE
1200 AM CST SUN DEC 28 2014

NOTES: SATELLITE DATA IS BEING USED TO AUGMENT CLOUD COVER ABOVE
       12000 FEET.
       "FAIR" INDICATES FEW OR NO CLOUDS BELOW 12,000 FEET WITH NO
       SIGNIFICANT WEATHER AND/OR OBSTRUCTIONS TO VISIBILITY.

  * THESE STATIONS DO NOT REPORT WEATHER SUCH AS RAIN...SNOW OR FOG.

NEZ001>004-019>022-054>056-280700-
NEBRASKA PANHANDLE

CITY           SKY/WX    TMP DP  RH WIND       PRES   REMARKS
SCOTTSBLUFF    PTCLDY     3  -1  83 N3        30.07F
6HR MIN TEMP:   0; 6HR MAX TEMP:  17;

ALLIANCE       PTCLDY    -1  -5  82 W10       30.04F WCI -17
6HR MIN TEMP:  -3; 6HR MAX TEMP:   9;

CHADRON        PTCLDY     3  -1  83 W9        30.07F WCI -12
6HR MIN TEMP:   2; 6HR MAX TEMP:  11;

KIMBALL        MOCLDY     2  -5  73 W5        30.02F WCI  -8
SIDNEY         PTCLDY     4  -4  69 NW9       30.07F WCI -10
6HR MIN TEMP:   2; 6HR MAX TEMP:   9;

$$

NEZ057>060-069>072-079>082-280700-
SOUTHWEST NEBRASKA

CITY           SKY/WX    TMP DP  RH WIND       PRES   REMARKS
NORTH PLATTE   PTCLDY     1  -2  87 NW3       30.14F
6HR MIN TEMP:   1; 6HR MAX TEMP:  14;

IMPERIAL       PTCLDY     6   0  76 W7        30.13F WCI  -6
6HR MIN TEMP:   5; 6HR MAX TEMP:  19;

LEXINGTON      CLEAR      5   2  87 NW3       30.15F
MCCOOK         PTCLDY     8   6  92 W5        30.17F WCI   0
6HR MIN TEMP:   6; 6HR MAX TEMP:  22;

$$

NEZ005>010-023>029-035>040-094-280700-
NORTH CENTRAL NEBRASKA

CITY           SKY/WX    TMP DP  RH WIND       PRES   REMARKS
VALENTINE      PTCLDY     5   1  83 W6        30.07F WCI  -6
6HR MIN TEMP:   4; 6HR MAX TEMP:  15;

AINSWORTH      PTCLDY    11   5  77 W10       30.07F WCI  -3
BROKEN BOW     CLEAR     20   9  62 W13       30.11F WCI   7
6HR MIN TEMP:   8; 6HR MAX TEMP:  20;

ORD            PTCLDY     8   5  87 CALM      30.12F
6HR MIN TEMP:   5; 6HR MAX TEMP:  19;

$$

NEZ041-046>049-061>064-073>077-083>087-280700-
SOUTH CENTRAL NEBRASKA

CITY           SKY/WX    TMP DP  RH WIND       PRES   REMARKS
GRAND ISLAND     N/A     16  11  80 SW10      30.17F WCI   4
6HR MIN TEMP:  12; 6HR MAX TEMP:  19;

AURORA         CLEAR     15  11  85 SW9       30.17F WCI   3
HASTINGS       CLEAR     17  11  77 W10       30.16F WCI   5
6HR MIN TEMP:  12; 6HR MAX TEMP:  21;

HEBRON         CLEAR     20  14  79 W7        30.22S WCI  11
KEARNEY *      CLEAR     14  10  85 SW8       30.17S WCI   3
YORK           CLEAR     14  10  85 S7        30.18F WCI   4
$$

NEZ011>018-030>034-042>045-280700-
NORTHEAST NEBRASKA

CITY           SKY/WX    TMP DP  RH WIND       PRES   REMARKS
NORFOLK        PTCLDY    11   7  84 CALM      30.13F
6HR MIN TEMP:   8; 6HR MAX TEMP:  16;

BLAIR          CLEAR     17  14  86 S5        30.17F WCI  10
COLUMBUS *     CLEAR     14   9  79 W7        30.17F WCI   4
FREMONT        CLEAR     18  14  83 SW8       30.19F WCI   8
TEKAMAH        CLEAR     13   9  84 SE3       30.20F
6HR MIN TEMP:  13; 6HR MAX TEMP:  18;

$$

NEZ050>053-065>068-078-088>093-280700-
SOUTHEAST NEBRASKA

CITY           SKY/WX    TMP DP  RH WIND       PRES   REMARKS
LINCOLN        CLEAR     17  12  80 CALM      30.22F
6HR MIN TEMP:  15; 6HR MAX TEMP:  24;

OMAHA EPPLEY   CLEAR     20  15  81 S5        30.22F WCI  13
6HR MIN TEMP:  18; 6HR MAX TEMP:  23;

FALLS CITY     CLEAR     20  16  84 SW5       30.25F WCI  13
6HR MIN TEMP:  20; 6HR MAX TEMP:  26;

NEBRASKA CITY  CLEAR     17  13  87 SW3       30.21F
$$

NEZ044-045-051>053-067-280700-
OMAHA AREA

CITY           SKY/WX    TMP DP  RH WIND       PRES   REMARKS
OMAHA EPPLEY   CLEAR     20  15  81 S5        30.22F WCI  13
6HR MIN TEMP:  18; 6HR MAX TEMP:  23;

BLAIR          CLEAR     17  14  86 S5        30.17F WCI  10
FREMONT        CLEAR     18  14  83 SW8       30.19F WCI   8
OFFUTT AFB     CLEAR     17  13  88 S2        30.20F
WAHOO          FAIR      17  13  82 SW7       30.19F WCI   8
$$


USA.gov is the U.S. government's official web portal to all federal, state and local government web resources and services.